Belle Chasse, LA

10:35 PM CST on February 26, 2017 (GMT -0600)
New Orleans Naval Air Station

Weather History for KNBG - September, 2012

Change the Weather History Date:

Tuesday, September 18, 2012

  Actual Average Record
Temperature  
Mean Temperature 78 °F -  
Max Temperature 84 °F 84 °F 134 °F (2002)
Min Temperature 71 °F 69 °F 59 °F (1999)
Cooling Degree Days 12    
Growing Degree Days 28 (Base 50)    
Moisture  
Dew Point 67 °F    
Average Humidity 75    
Maximum Humidity 94    
Minimum Humidity 51    
Precipitation  
Precipitation 0.00 in - - ()
Sea Level Pressure  
Sea Level Pressure 29.87 in    
Wind  
Wind Speed 6 mph (NW)    
Max Wind Speed 13 mph    
Max Gust Speed 22 mph    
Visibility 10 miles    
Events Fog    
Averages and records for this station are not official NWS values.
T = Trace of Precipitation, MM = Missing Value Source: NWS Daily Summary

Daily Weather History Graph

Daily Weather History Graph

Search for Another Location

Airport or City:

Trip Planner

Search our weather history database for the weather conditions in past years. The results will help you decide how hot, cold, wet, or windy it might be!

Date:

Astronomy

Sep. 18, 2012 Rise Set
Actual Time 6:46 AM CDT 7:01 PM CDT
Civil Twilight 6:22 AM CDT 7:24 PM CDT
Nautical Twilight 5:54 AM CDT 7:52 PM CDT
Astronomical Twilight 5:26 AM CDT 8:20 PM CDT
Moon 9:28 AM CDT (9/18) 8:44 PM CDT (9/18)
Length of Visible Light 13h 02m
Length of Day
12h 14m
Waxing Crescent, 9% of the Moon is Illuminated
Sep 18
Waxing Crescent
Sep 22
First Quarter
Sep 29
Full
Oct 8
Last Quarter
Oct 15
New

Hourly Weather History & Observations

Time (CDT) Temp. Heat Index Dew Point Humidity Pressure Visibility Wind Dir Wind Speed Gust Speed Precip Events Conditions
12:55 AM 75.0 °F - 71.1 °F 87% 29.79 in 10.0 mi WSW 5.8 mph - N/A   Clear
1:55 AM 73.0 °F - 70.0 °F 90% 29.79 in 10.0 mi West 4.6 mph - N/A   Clear
2:55 AM 73.0 °F - 70.0 °F 90% 29.79 in 10.0 mi West 3.5 mph - N/A   Clear
3:55 AM 72.0 °F - 69.1 °F 91% 29.79 in 10.0 mi Calm Calm - N/A   Mostly Cloudy
4:55 AM 72.0 °F - 69.1 °F 91% 29.79 in 10.0 mi WSW 4.6 mph - N/A   Clear
5:55 AM 72.0 °F - 69.1 °F 91% 29.79 in 10.0 mi WSW 4.6 mph - N/A   Partly Cloudy
6:08 AM 71.6 °F - 69.8 °F 94% 29.80 in 7.0 mi West 5.8 mph - N/A Fog Shallow Fog
6:36 AM 71.6 °F - 69.8 °F 94% 29.82 in 7.0 mi WSW 8.1 mph - N/A Fog Shallow Fog
6:40 AM 75.2 °F - 68.0 °F 78% 29.87 in 10.0 mi Variable 6.9 mph - N/A   Mostly Cloudy
6:55 AM 72.0 °F - 68.0 °F 87% 29.82 in 10.0 mi WSW 6.9 mph - N/A   Scattered Clouds
7:29 AM 71.6 °F - 69.8 °F 94% 29.84 in 10.0 mi West 6.9 mph - N/A   Mostly Cloudy
7:55 AM 73.0 °F - 68.0 °F 84% 29.85 in 10.0 mi Variable 6.9 mph - N/A   Mostly Cloudy
8:07 AM 73.4 °F - 69.8 °F 88% 29.85 in 10.0 mi West 5.8 mph - N/A   Mostly Cloudy
8:55 AM 75.0 °F - 68.0 °F 79% 29.86 in 10.0 mi West 10.4 mph 18.4 mph N/A   Mostly Cloudy
9:55 AM 77.0 °F - 68.0 °F 74% 29.88 in 10.0 mi WNW 8.1 mph 19.6 mph N/A   Mostly Cloudy
10:55 AM 80.1 °F 82.3 °F 66.9 °F 64% 29.89 in 10.0 mi NNW 12.7 mph 20.7 mph N/A   Mostly Cloudy
11:05 AM 78.8 °F - 66.2 °F 65% 29.89 in 10.0 mi NW 9.2 mph 20.7 mph N/A   Mostly Cloudy
11:55 AM 80.1 °F 82.1 °F 66.0 °F 62% 29.90 in 10.0 mi NNW 11.5 mph 21.9 mph N/A   Mostly Cloudy
12:02 PM 80.6 °F 82.7 °F 66.2 °F 61% 29.90 in 10.0 mi NNW 8.1 mph 17.3 mph N/A   Mostly Cloudy
12:55 PM 82.0 °F 84.1 °F 66.0 °F 58% 29.91 in 10.0 mi NNW 10.4 mph 17.3 mph N/A   Mostly Cloudy
1:55 PM 82.0 °F 84.1 °F 66.0 °F 58% 29.91 in 10.0 mi NNW 9.2 mph - N/A   Mostly Cloudy
2:55 PM 84.0 °F 85.4 °F 64.0 °F 51% 29.90 in 10.0 mi North 9.2 mph - N/A   Mostly Cloudy
3:55 PM 82.0 °F 83.1 °F 63.0 °F 52% 29.89 in 10.0 mi North 10.4 mph 17.3 mph N/A   Mostly Cloudy
4:55 PM 82.0 °F 83.4 °F 64.0 °F 54% 29.90 in 10.0 mi NNE 9.2 mph - N/A   Mostly Cloudy
5:55 PM 81.0 °F 82.2 °F 63.0 °F 54% 29.89 in 10.0 mi North 9.2 mph - N/A   Scattered Clouds
6:55 PM 79.0 °F - 64.0 °F 60% 29.90 in 10.0 mi Calm Calm - N/A   Scattered Clouds
7:55 PM 73.0 °F - 66.9 °F 81% 29.93 in 10.0 mi Calm Calm - N/A   Scattered Clouds
8:55 PM 73.0 °F - 68.0 °F 84% 29.96 in 10.0 mi Calm Calm - N/A   Scattered Clouds
9:55 PM 75.9 °F - 66.0 °F 71% 29.98 in 10.0 mi NNE 5.8 mph - N/A   Partly Cloudy
10:55 PM 75.0 °F - 66.0 °F 73% 30.00 in 10.0 mi North 8.1 mph - N/A   Partly Cloudy
11:55 PM 73.9 °F - 64.9 °F 73% 30.01 in 10.0 mi NNE 9.2 mph - N/A   Clear